Overview Statistics Trail Chart Weather Telemetry Raw packets
 

This is the latest recevied weather packets stored in our database for station/object W0WC. If no packets are shown the sender has not sent any weather packets the latest 10 day(s).

<< 35 36 37 38 39 40 41 >>
Time Temp. Humidity Pressure Rain* Wind** Luminosity Snow
1788449077 31.11° C 51% 1016.3 hPa 0 mm - 483 W/m² -
1788448773 31.67° C 51% 1016.5 hPa 0 mm - 469 W/m² -
1788448466 31.11° C 52% 1016.2 hPa 0 mm - 455 W/m² -
1788448162 31.11° C 52% 1016.3 hPa 0 mm - 443 W/m² -
1788447857 31.11° C 52% 1016.2 hPa 0 mm - 429 W/m² -
1788447557 31.11° C 52% 1016.3 hPa 0 mm - 415 W/m² -
1788447252 30.56° C 54% 1016.4 hPa 0 mm - 399 W/m² -
1788446952 30.56° C 53% 1016.4 hPa 0 mm - 386 W/m² -
1788446647 30.56° C 54% 1016.4 hPa 0 mm - 372 W/m² -
1788446342 30.56° C 55% 1016.6 hPa 0 mm - 356 W/m² -
1788446039 30.56° C 56% 1016.1 hPa 0 mm - 340 W/m² -
1788445739 30° C 57% 1016.4 hPa 0 mm - 272 W/m² -
1788445435 30° C 58% 1016.5 hPa 0 mm - 311 W/m² -
1788445131 30° C 58% 1016.7 hPa 0 mm - 226 W/m² -
1788444826 29.44° C 58% 1016.5 hPa 0 mm - 280 W/m² -
1788444521 29.44° C 59% 1016.5 hPa 0 mm - 168 W/m² -
1788444216 29.44° C 59% 1016.5 hPa 0 mm - 250 W/m² -
1788443912 28.89° C 60% 1016.6 hPa 0 mm - 177 W/m² -
1788443608 28.89° C 61% 1016.6 hPa 0 mm - 125 W/m² -
1788443306 28.89° C 61% 1016.5 hPa 0 mm - 58 W/m² -
1788443002 28.89° C 61% 1016.5 hPa 0 mm - 40 W/m² -
1788442700 28.33° C 62% 1016.8 hPa 0 mm - 64 W/m² -
1788442396 28.33° C 63% 1016.8 hPa 0 mm - 74 W/m² -
1788442096 27.78° C 64% 1016.5 hPa 0 mm - 125 W/m² -
1788441792 27.78° C 65% 1016.6 hPa 0 mm - 97 W/m² -

* Rain latest hour (hover to see other rain measurements)
** Current wind speed in m/s (hover to see current wind gust speed)